Temperature
31 32 32 32 32 32 32 32 32 32 31 30 30 31 30 29 29 28 27 27 26 25 25 24 24 23 23 22 22 22 22 21 21 21 20 20 20 19 19 19 19 19 19 18
29 31 32 32 32 32 32 32 32 32 31 31 31 30 29 29 28 28 27 26 25 25 24 24 23 23 23 22 22 22 21 21 21 20 20 20 19 19 19 19 19 19 18 18
28 30 30 30 31 32 32 32 32 31 31 31 30 29 28 28 27 27 26 26 25 24 24 23 23 23 22 22 22 21 21 21 20 20 20 19 19 19 19 19 19 19 18 18
27 28 27 30 32 33 32 32 32 31 31 31 30 29 28 27 27 26 25 25 24 24 23 23 22 22 22 22 21 21 21 20 20 20 19 19 19 19 19 18 18 18 18 18
27 27 28 30 31 32 31 30 31 31 30 30 29 29 27 26 26 25 24 24 23 23 23 23 22 22 22 21 21 21 20 20 20 20 19 19 19 19 19 18 18 18 18 18
26 26 26 29 31 32 31 29 30 30 29 29 29 28 27 25 25 24 24 23 23 23 23 22 22 21 21 21 20 20 20 20 20 19 19 19 19 19 19 18 18 18 18 18
25 25 27 29 30 30 28 27 28 28 28 28 27 26 25 24 24 23 23 23 22 22 21 21 21 21 21 20 20 20 20 19 19 19 19 19 18 18 18 18 18 17 17 18
25 25 25 28 29 27 26 27 27 26 26 26 25 24 23 23 22 22 22 22 21 21 20 20 20 20 20 20 19 19 19 19 19 18 18 18 18 18 18 17 17 17 17 17
25 25 25 26 26 25 25 25 25 25 25 24 24 23 22 22 21 21 21 21 21 20 20 20 19 19 19 19 19 19 19 18 18 18 18 18 18 17 17 17 17 17 17 16
24 24 25 24 24 24 24 24 24 24 23 23 23 22 21 21 21 20 20 20 20 20 19 19 19 19 18 18 18 18 18 18 17 17 17 17 17 17 17 17 17 16 16 16
23 23 23 23 23 23 23 23 23 23 22 22 22 21 21 20 20 19 19 19 19 19 18 18 18 18 18 18 18 17 17 17 17 16 17 17 17 17 17 17 17 16 16 16
22 22 22 22 22 22 22 22 22 22 22 21 21 20 20 19 19 19 19 18 18 18 18 17 17 17 17 17 17 17 16 16 16 16 16 16 16 16 16 16 16 16 16 16
21 21 21 21 21 21 21 21 21 21 20 20 20 20 19 19 18 18 18 18 18 17 17 17 17 17 17 17 17 16 16 16 16 16 16 16 16 16 16 16 16 16 16 16
19 20 20 20 20 20 20 20 20 20 19 19 19 19 18 18 18 18 17 17 17 17 17 17 16 16 16 16 16 16 16 16 16 16 16 16 16 16 16 16 16 15 15 15
19 19 19 19 19 19 19 19 19 19 19 19 18 18 18 17 17 17 17 17 17 16 16 16 16 16 16 16 15 15 15 15 16 16 16 16 16 16 16 16 15 15 15 15
18 18 18 18 18 18 18 18 18 18 18 18 17 17 17 17 16 16 16 16 16 16 16 16 16 16 15 15 15 15 15 16 15 16 16 16 16 16 16 15 15 15 15 15
18 18 18 18 18 18 18 18 17 17 17 17 17 16 16 16 16 16 15 15 15 15 15 15 15 15 15 15 15 15 15 15 15 16 15 16 16 15 15 15 15 15 14 14
17 17 17 17 17 17 17 17 16 16 16 16 16 16 16 15 15 15 15 15 15 15 15 15 15 15 15 15 15 15 15 15 15 15 15 15 15 15 15 15 15 14 14 14
16 16 16 16 16 16 16 16 16 16 15 15 15 15 15 15 15 15 14 14 14 14 14 15 15 15 14 14 15 15 15 15 15 15 15 15 15 15 15 15 15 14 14 14
15 15 15 15 15 15 15 15 15 15 15 15 15 15 15 15 15 14 14 14 14 14 14 14 15 14 14 15 15 15 15 15 15 15 15 15 15 15 15 14 14 14 14 13
15 15 15 15 15 15 15 15 15 15 14 14 14 14 14 14 14 14 14 14 14 14 14 14 14 14 15 15 15 15 15 15 15 15 15 15 15 15 14 14 14 14 13 13
14 14 14 14 14 14 14 14 14 14 14 14 14 14 14 14 14 14 14 14 14 14 14 14 14 14 15 15 15 15 15 15 15 15 15 14 14 14 14 14 14 13 13 13
14 14 14 14 14 14 14 14 14 14 14 14 14 14 14 14 14 14 13 13 14 14 14 14 14 14 14 14 14 14 14 15 15 15 14 14 14 14 13 13 13 13 13 12
13 13 14 14 14 13 13 13 14 14 13 13 13 14 13 14 13 13 13 13 13 14 14 14 14 14 14 14 14 14 14 14 14 14 14 14 13 13 13 13 13 12 12 12
13 13 13 13 13 13 13 13 13 13 13 14 13 13 13 13 14 14 13 13 13 13 13 13 14 14 14 13 13 14 14 14 14 13 13 13 13 13 12 12 12 12 12 11
13 13 13 13 13 13 13 14 14 14 14 14 14 13 13 13 13 13 13 13 13 13 13 13 13 13 13 13 13 13 13 13 13 13 13 13 12 12 12 11 11 11 11 11
13 13 13 13 13 13 13 13 14 14 14 14 14 13 13 13 13 13 13 13 13 13 13 13 13 13 13 13 13 13 13 13 13 12 12 12 12 12 11 11 11 10 10 10
Wind_Speed
17 14 13 14 14 15 14 13 12 7 6 7 6 4 6 8 8 7 8 9 8 7 7 7 7 7 8 7 7 7 8 9 9 8 7 6 6 5 5 5 5 4 3 3
17 17 16 15 14 14 15 14 14 10 3 7 6 5 5 6 6 7 7 7 7 7 6 7 7 7 7 7 7 6 7 7 8 7 7 7 6 5 5 5 4 4 4 4
15 16 17 18 15 15 14 13 12 10 4 5 5 5 5 6 5 5 5 5 6 6 6 6 6 6 6 6 7 6 6 6 6 7 7 6 7 6 5 5 4 4 4 4
13 14 19 15 12 13 12 10 9 5 3 3 5 6 5 5 5 4 4 3 4 5 6 6 6 7 5 6 7 7 6 6 5 6 5 5 5 5 5 4 4 4 4 4
12 16 17 15 12 12 11 9 7 5 4 2 3 5 4 4 5 4 4 3 2 3 5 5 6 6 6 5 5 6 6 6 6 6 6 6 5 5 5 4 4 4 4 4
12 15 15 11 11 8 7 9 5 3 3 3 3 4 2 4 4 4 4 3 2 2 4 5 4 4 6 6 6 5 5 5 6 6 6 6 5 5 4 4 5 5 4 4
16 15 11 8 6 7 11 5 2 3 2 1 0 1 3 4 4 4 4 4 4 4 3 3 4 3 3 3 3 3 3 4 4 4 4 4 4 4 4 5 5 4 4 4
14 15 10 5 4 3 1 4 4 4 2 2 3 4 4 5 4 4 4 4 4 4 4 3 4 4 3 2 2 3 3 3 3 3 4 4 4 3 3 3 4 4 4 4
7 7 1 4 3 4 4 4 4 3 2 3 4 4 4 4 4 3 3 3 3 4 4 3 4 3 3 3 3 3 3 2 2 3 2 3 4 4 4 4 4 4 4 4
5 4 3 1 2 2 2 2 2 2 1 2 2 3 3 3 3 3 2 2 3 3 4 3 4 3 3 3 3 3 3 2 2 3 3 3 3 3 4 3 3 3 3 3
7 5 2 2 1 1 1 0 0 0 1 1 3 3 2 3 3 2 2 2 3 3 3 3 4 4 4 3 4 4 4 3 3 4 3 3 3 2 2 2 2 3 2 2
5 4 3 4 3 2 2 1 0 0 1 1 3 4 3 3 3 2 2 2 2 2 3 3 4 4 3 3 4 4 4 4 4 4 4 4 4 2 3 1 3 3 2 2
5 4 4 3 2 3 3 2 1 1 1 1 2 3 3 3 3 3 2 2 2 2 2 3 3 3 3 3 3 3 3 3 3 3 3 4 4 4 3 1 1 2 3 3
4 3 4 3 3 2 1 1 1 1 1 2 1 2 3 3 3 3 2 2 2 2 2 3 3 3 3 3 2 2 2 3 3 3 3 4 4 4 4 5 4 3 2 4
6 5 4 3 4 3 2 2 2 2 2 2 2 2 2 2 2 1 1 1 2 2 3 3 3 3 3 3 3 2 3 3 3 3 3 4 3 4 4 4 4 4 3 3
6 6 5 5 5 4 3 3 3 2 2 1 1 2 2 2 2 2 2 2 2 2 2 2 2 2 2 2 2 2 2 3 3 3 4 3 3 3 3 3 3 3 3 3
7 6 6 6 5 4 4 3 3 3 2 2 1 1 2 2 2 3 2 2 1 1 2 2 2 1 2 2 2 3 3 3 4 4 4 3 2 3 2 3 3 3 2 3
5 5 5 5 4 4 3 3 3 3 2 2 1 1 2 3 3 2 2 2 2 2 1 2 2 2 2 2 2 3 3 3 3 3 3 2 3 3 3 3 3 3 2 3
4 4 4 3 4 4 4 3 3 2 2 2 2 2 2 2 2 3 3 3 2 2 2 1 2 3 3 2 4 4 4 3 2 3 2 2 3 3 3 3 3 3 3 2
3 3 3 3 3 3 3 3 3 3 3 3 2 2 2 2 3 3 3 2 2 2 2 2 3 3 3 2 4 4 4 3 3 2 2 2 3 3 2 3 3 3 3 3
3 3 3 3 2 3 3 4 4 4 3 3 3 3 3 3 3 2 3 3 1 1 2 3 3 2 2 3 4 4 3 2 2 2 2 2 2 2 2 2 2 2 2 2
2 3 4 4 3 3 2 3 3 3 3 3 3 4 3 3 3 3 2 2 2 2 2 2 2 1 3 3 3 3 2 2 2 2 2 2 2 2 2 2 2 2 2 2
2 3 3 3 3 3 2 2 3 3 3 3 3 3 3 2 3 3 3 2 2 1 1 1 1 2 3 2 2 2 2 2 2 2 1 1 1 2 2 2 2 2 2 3
2 2 2 2 2 2 1 1 2 2 3 3 3 3 4 3 3 3 2 3 3 2 1 1 2 1 2 2 2 2 2 2 2 2 2 2 2 1 2 2 2 2 2 3
1 1 2 2 2 2 2 2 2 3 4 3 4 5 4 3 3 3 3 3 4 3 2 2 3 3 3 3 2 2 2 2 2 2 2 2 2 2 2 2 2 2 2 3
1 2 2 1 1 1 1 1 2 2 3 3 3 3 3 3 3 3 3 4 4 3 2 2 2 3 2 3 3 2 1 1 1 2 2 2 3 2 1 1 2 2 2 2
2 2 2 2 1 1 1 1 1 1 2 3 3 2 3 3 3 3 2 2 3 3 2 1 1 2 1 2 2 1 1 2 1 2 2 2 2 1 1 1 1 2 2 2
Wind_Direction
258 257 248 234 233 233 240 250 257 249 195 161 147 155 141 135 135 135 137 141 141 144 147 152 155 157 164 170 171 169 165 170 173 174 173 173 175 176 178 184 188 184 180 179
256 256 253 245 236 235 238 244 249 252 209 140 135 121 119 125 134 133 138 149 147 145 143 155 161 166 166 170 167 158 164 173 170 170 174 177 176 177 181 184 183 182 180 179
253 252 256 245 237 235 238 240 246 249 208 141 133 130 134 134 134 131 141 147 149 150 152 161 161 163 167 165 158 161 171 172 170 171 176 180 184 179 183 185 183 184 186 172
250 251 248 247 242 241 235 240 241 226 203 179 150 137 114 118 125 121 117 118 144 162 162 166 166 166 154 157 155 164 169 172 173 176 178 178 178 181 185 186 185 191 189 177
244 243 245 247 237 234 235 236 235 222 201 181 154 141 118 106 120 120 124 126 137 168 169 161 162 157 149 152 164 167 169 171 179 180 179 182 188 188 187 184 186 193 187 185
243 246 243 243 238 228 231 232 226 207 195 207 202 224 147 102 109 122 127 125 128 133 129 135 143 150 155 162 169 175 177 178 180 180 182 183 185 191 187 186 191 197 193 189
239 245 248 261 252 229 225 218 162 159 169 214 114 34 95 101 96 97 107 113 114 108 106 115 126 127 136 152 168 169 160 163 164 166 172 177 178 185 189 196 193 195 190 191
234 239 239 281 237 235 81 84 97 94 106 103 95 99 100 97 96 99 100 103 108 111 107 105 116 126 133 137 136 130 138 147 159 162 185 175 156 168 183 193 193 203 201 206
229 234 258 358 53 73 84 82 80 92 89 98 118 126 124 115 114 112 107 110 110 118 115 114 120 130 138 126 118 122 129 143 153 166 186 161 170 180 189 194 204 209 206 208
241 217 206 220 62 65 95 97 81 97 102 100 132 130 132 130 124 124 115 111 114 123 132 127 131 130 124 124 131 136 147 158 173 188 183 169 182 190 200 197 205 215 217 209
226 229 228 178 202 63 59 120 274 285 177 167 150 146 153 136 124 133 127 116 123 129 135 133 130 130 132 137 147 157 166 176 194 203 188 178 188 190 204 193 201 216 227 211
236 237 243 236 246 254 244 226 201 203 178 197 158 166 171 150 142 144 152 133 129 131 136 131 134 137 138 146 157 167 179 195 202 199 189 190 185 166 47 81 134 124 116 159
260 258 243 248 274 273 233 181 176 158 158 129 127 150 147 140 145 147 156 149 136 145 144 133 142 147 147 153 160 169 194 213 221 217 201 200 199 198 192 158 84 123 137 140
255 243 238 248 269 275 206 181 163 146 134 144 143 141 140 144 154 154 159 165 149 152 151 145 149 151 154 155 162 179 210 223 242 229 218 217 213 216 210 204 204 212 197 183
253 247 236 246 255 236 206 197 185 180 171 169 155 147 150 142 146 162 158 177 157 159 160 156 155 152 157 161 171 194 229 233 245 251 235 225 220 226 232 226 218 212 193 190
247 242 233 239 233 220 217 214 209 199 202 204 180 164 157 154 155 157 160 165 164 164 152 149 152 155 161 170 191 207 233 254 246 253 247 235 228 234 237 237 241 231 212 186
239 236 231 221 217 216 214 210 203 207 214 204 181 179 168 174 159 146 145 157 139 143 153 154 160 160 173 193 218 234 234 236 234 240 243 242 247 252 256 254 249 250 235 181
236 234 233 218 212 217 211 201 196 195 199 187 174 188 188 175 166 158 151 152 147 146 162 164 156 193 208 218 246 254 250 239 227 244 249 249 252 250 252 260 267 267 243 195
230 216 204 197 200 193 182 178 186 191 189 183 194 204 200 184 171 168 170 180 182 191 187 160 180 219 227 237 270 266 262 247 231 242 254 241 256 261 258 259 264 265 268 249
201 185 174 172 174 177 177 181 197 196 189 188 201 207 193 188 184 182 179 191 215 210 173 182 208 233 236 245 266 268 269 260 250 248 255 257 271 278 278 278 271 268 265 260
180 166 158 158 165 176 176 186 199 198 193 192 202 207 193 179 176 179 193 201 173 172 196 203 226 245 265 279 264 271 271 286 287 281 283 289 294 298 297 291 287 280 277 271
164 163 161 157 154 156 160 172 180 184 185 198 214 208 192 184 180 178 184 205 210 220 228 230 235 321 325 291 255 267 284 310 320 319 319 315 307 306 310 311 298 292 291 287
157 154 150 144 144 142 145 162 167 165 174 187 190 183 186 197 207 201 204 203 210 200 221 277 51 38 350 290 274 276 293 303 304 308 319 323 328 325 313 320 321 320 321 316
129 120 130 142 144 143 155 185 163 163 179 182 179 184 195 196 197 199 177 155 152 155 169 122 131 169 262 259 260 266 279 290 300 310 325 324 334 341 334 334 323 315 320 318
134 148 166 169 172 175 179 187 186 187 188 188 192 193 200 201 195 174 160 145 139 153 166 174 195 216 248 266 266 269 286 303 320 319 316 313 314 319 334 333 331 333 342 341
193 196 165 171 196 214 212 202 194 186 179 183 187 180 175 168 165 166 163 162 169 183 204 191 196 211 232 259 269 270 289 299 281 281 302 315 313 311 319 343 334 330 326 334
175 177 162 180 192 232 256 225 198 180 161 157 162 161 166 171 167 167 169 165 168 168 170 196 216 224 241 269 285 294 300 309 322 331 326 328 336 336 347 351 323 329 323 319
Height
1445 1440 1440 1443 1444 1444 1448 1451 1458 1456 1458 1458 1459 1460 1463 1466 1469 1472 1476 1481 1484 1487 1491 1494 1497 1500 1503 1506 1509 1511 1513 1515 1517 1519 1521 1523 1524 1526 1527 1528 1530 1530 1531 1531
1450 1442 1440 1441 1441 1442 1445 1446 1448 1450 1454 1452 1456 1460 1464 1467 1471 1473 1477 1480 1484 1487 1490 1493 1495 1498 1500 1503 1506 1509 1511 1513 1515 1517 1519 1521 1522 1524 1525 1526 1527 1528 1529 1529
1458 1447 1445 1451 1441 1441 1443 1441 1445 1452 1452 1452 1456 1461 1465 1469 1472 1474 1477 1480 1483 1486 1489 1491 1494 1496 1498 1501 1504 1506 1508 1510 1512 1514 1516 1518 1520 1521 1523 1524 1525 1526 1526 1527
1459 1458 1469 1445 1431 1433 1438 1441 1441 1445 1449 1452 1456 1461 1466 1469 1472 1474 1477 1480 1483 1486 1488 1491 1493 1495 1497 1500 1503 1505 1508 1510 1511 1512 1513 1515 1517 1518 1520 1522 1523 1524 1525 1525
1460 1461 1455 1440 1432 1433 1439 1444 1441 1444 1448 1453 1457 1461 1466 1469 1472 1475 1478 1480 1483 1485 1487 1489 1491 1493 1495 1497 1500 1503 1505 1507 1509 1511 1511 1512 1514 1515 1517 1518 1520 1521 1522 1522
1459 1464 1462 1444 1431 1431 1439 1449 1444 1446 1450 1454 1457 1462 1468 1470 1472 1475 1477 1479 1482 1484 1486 1488 1490 1492 1494 1496 1498 1500 1502 1504 1505 1507 1509 1510 1511 1512 1514 1515 1516 1518 1518 1519
1459 1459 1448 1435 1432 1434 1451 1452 1447 1449 1453 1456 1459 1464 1469 1470 1472 1475 1477 1479 1481 1483 1485 1486 1488 1490 1492 1494 1496 1498 1499 1501 1503 1504 1506 1507 1508 1510 1511 1512 1513 1514 1514 1516
1454 1459 1456 1437 1435 1442 1447 1447 1449 1452 1455 1458 1462 1465 1469 1471 1473 1475 1477 1478 1480 1482 1484 1485 1487 1489 1490 1492 1494 1495 1496 1498 1499 1500 1503 1505 1506 1507 1508 1509 1510 1511 1512 1513
1447 1449 1444 1442 1443 1446 1448 1450 1452 1455 1457 1459 1463 1466 1469 1471 1473 1475 1477 1478 1480 1481 1482 1484 1485 1487 1489 1490 1492 1493 1494 1496 1497 1498 1500 1502 1503 1504 1505 1506 1507 1509 1510 1510
1444 1444 1444 1446 1447 1449 1450 1452 1454 1456 1459 1461 1463 1466 1469 1471 1472 1474 1476 1478 1479 1480 1481 1483 1484 1485 1487 1488 1490 1491 1492 1494 1495 1497 1498 1499 1501 1502 1503 1504 1505 1506 1507 1507
1444 1445 1445 1446 1450 1451 1452 1454 1455 1457 1459 1461 1463 1466 1469 1471 1472 1474 1475 1477 1478 1479 1480 1481 1482 1483 1485 1486 1488 1489 1490 1492 1493 1495 1496 1498 1499 1500 1501 1502 1503 1504 1504 1505
1444 1445 1446 1448 1450 1451 1453 1454 1455 1456 1458 1460 1463 1465 1468 1469 1471 1473 1474 1476 1477 1478 1479 1479 1481 1482 1483 1484 1486 1487 1488 1490 1492 1493 1494 1496 1497 1498 1498 1500 1500 1501 1501 1502
1444 1445 1447 1448 1449 1451 1452 1454 1455 1457 1458 1460 1462 1464 1466 1468 1470 1472 1473 1475 1476 1477 1477 1478 1479 1480 1482 1483 1485 1486 1487 1488 1490 1491 1492 1493 1494 1495 1495 1496 1497 1497 1498 1498
1443 1444 1445 1447 1450 1451 1452 1453 1455 1457 1458 1460 1462 1463 1465 1467 1468 1470 1472 1473 1475 1476 1477 1477 1478 1479 1480 1481 1483 1484 1485 1487 1488 1489 1490 1490 1491 1492 1492 1492 1492 1492 1493 1494
1442 1442 1445 1447 1449 1451 1451 1453 1455 1456 1458 1460 1461 1462 1464 1465 1467 1469 1471 1472 1473 1474 1475 1476 1477 1478 1479 1480 1481 1482 1484 1485 1486 1487 1488 1488 1489 1489 1490 1490 1489 1489 1489 1489
1440 1441 1444 1446 1447 1448 1451 1452 1454 1456 1458 1459 1460 1461 1462 1464 1466 1467 1469 1471 1472 1473 1474 1475 1476 1477 1478 1479 1480 1481 1482 1483 1484 1485 1486 1486 1486 1486 1486 1487 1487 1487 1486 1486
1438 1440 1442 1444 1446 1447 1449 1451 1453 1455 1457 1458 1459 1460 1461 1463 1465 1466 1468 1469 1470 1471 1473 1474 1475 1476 1477 1477 1478 1479 1480 1481 1482 1482 1483 1483 1483 1483 1484 1484 1484 1484 1483 1483
1437 1439 1440 1442 1444 1446 1448 1450 1452 1454 1455 1457 1458 1460 1461 1463 1464 1466 1467 1468 1470 1470 1472 1473 1474 1474 1476 1476 1477 1478 1479 1479 1480 1480 1480 1480 1480 1480 1481 1481 1480 1480 1479 1479
1435 1437 1438 1441 1443 1445 1447 1449 1451 1453 1454 1456 1458 1459 1460 1462 1463 1465 1466 1467 1468 1469 1470 1471 1472 1473 1474 1475 1476 1476 1477 1477 1477 1478 1478 1478 1478 1478 1478 1478 1477 1477 1478 1477
1435 1436 1438 1441 1443 1444 1445 1448 1450 1452 1453 1455 1456 1458 1459 1461 1462 1464 1465 1466 1467 1468 1469 1470 1470 1472 1473 1473 1474 1474 1475 1475 1475 1475 1475 1475 1475 1475 1475 1475 1475 1474 1474 1474
1434 1436 1437 1439 1441 1442 1444 1446 1448 1449 1451 1453 1454 1456 1457 1459 1460 1462 1463 1464 1465 1466 1467 1468 1468 1469 1470 1471 1472 1472 1473 1473 1473 1473 1473 1473 1473 1473 1472 1472 1472 1472 1472 1471
1435 1436 1437 1439 1441 1442 1444 1445 1446 1447 1448 1450 1452 1453 1455 1457 1458 1459 1460 1461 1463 1464 1465 1466 1466 1467 1468 1469 1470 1470 1471 1471 1471 1471 1470 1471 1470 1470 1470 1469 1469 1469 1469 1468
1435 1436 1438 1439 1440 1442 1443 1444 1445 1445 1446 1448 1450 1452 1453 1455 1456 1457 1458 1460 1461 1462 1463 1463 1464 1465 1466 1467 1467 1468 1468 1469 1469 1469 1469 1468 1468 1468 1467 1467 1467 1466 1466 1465
1435 1437 1438 1440 1441 1441 1442 1443 1444 1444 1445 1447 1448 1450 1452 1453 1454 1455 1456 1458 1459 1460 1460 1461 1462 1463 1463 1464 1465 1466 1466 1467 1467 1467 1466 1466 1466 1466 1465 1464 1464 1463 1462 1462
1436 1437 1438 1439 1440 1441 1441 1442 1442 1443 1444 1446 1447 1448 1450 1451 1453 1454 1455 1456 1457 1458 1458 1459 1459 1460 1461 1462 1463 1463 1464 1464 1464 1464 1464 1464 1463 1463 1463 1462 1461 1461 1460 1459
1436 1437 1438 1439 1440 1440 1441 1441 1442 1443 1444 1445 1446 1448 1449 1451 1452 1453 1454 1455 1456 1456 1457 1458 1459 1459 1459 1460 1461 1461 1462 1462 1462 1462 1462 1462 1461 1461 1460 1459 1458 1457 1457 1455
1436 1437 1438 1439 1439 1440 1440 1440 1441 1442 1443 1444 1446 1447 1449 1450 1452 1453 1454 1454 1455 1456 1457 1457 1457 1458 1458 1459 1459 1459 1459 1460 1460 1460 1459 1459 1458 1458 1457 1456 1455 1454 1453 1452